Wind_Speed
38 38 39 39 39 39 38 38 37 37 38 38 38 39 38 37 37 36 36 37 36 37 40 41 38 36 37 39 42 44 43 43 45 44 43 45 47 47 46 46 45 43
37 38 38 39 39 39 39 38 38 38 39 38 38 38 37 36 35 35 35 35 35 35 35 37 40 39 37 36 38 39 40 40 43 44 44 45 45 46 45 45 45 43
37 38 39 40 40 40 39 38 38 38 38 38 38 37 36 35 34 34 34 33 34 33 31 33 38 41 40 39 38 38 39 40 41 42 43 44 44 44 45 44 44 43
37 38 39 40 40 40 38 38 38 39 38 38 38 37 35 34 33 33 33 33 33 33 31 30 33 38 40 41 40 40 41 44 44 43 43 43 43 43 45 45 44 43
37 38 39 39 40 39 38 38 39 39 38 38 37 35 34 33 32 32 32 32 32 33 32 29 29 33 37 39 38 38 38 39 40 41 42 41 42 42 44 44 43 42
37 38 39 39 39 38 38 40 40 39 38 38 36 35 34 33 32 31 31 31 31 32 32 31 29 29 34 38 38 38 39 39 40 41 41 41 41 41 42 42 42 41
38 38 38 38 38 38 39 41 40 40 39 37 35 35 34 33 32 31 30 30 30 31 32 33 31 28 31 36 38 39 39 39 40 40 40 40 40 40 40 40 40 40
37 38 38 37 37 38 40 41 41 40 38 36 36 36 34 33 32 31 30 29 30 31 31 32 32 30 30 33 36 39 39 38 38 38 38 38 38 38 39 39 39 39
35 37 38 37 38 40 41 41 41 39 37 36 36 35 34 33 32 31 30 30 30 30 31 32 32 31 31 33 35 37 38 38 37 37 37 38 38 38 38 38 38 38
35 37 37 38 40 41 42 41 40 39 37 36 35 35 34 33 32 31 31 30 30 31 31 31 32 33 33 34 35 35 37 38 38 39 38 38 38 38 38 38 38 37
35 37 38 40 41 41 42 41 40 38 37 36 35 35 34 33 33 32 32 31 32 32 31 31 32 33 33 34 35 35 35 37 38 39 39 38 38 38 38 38 37 36
36 38 40 41 41 41 41 41 40 39 37 36 35 34 34 34 34 34 33 33 33 32 32 31 31 32 33 34 36 36 35 35 36 36 37 37 37 37 37 37 37 36
37 39 41 42 42 42 41 40 39 39 38 37 35 34 34 34 35 35 34 33 32 32 32 31 30 31 33 35 36 35 34 34 34 35 35 35 36 36 35 35 36 35
38 39 41 42 42 41 40 40 40 39 38 37 35 34 35 35 35 35 34 33 32 32 32 31 30 31 34 35 34 34 34 33 33 33 34 34 33 33 34 34 33 33
38 39 40 41 41 40 40 41 40 39 37 36 35 35 35 35 35 34 34 33 33 33 32 31 30 31 33 34 34 33 33 33 32 32 32 33 32 32 32 32 31 31
37 38 40 40 40 40 41 40 39 38 36 35 35 35 34 34 34 34 34 34 33 33 32 32 32 31 32 34 34 33 33 32 32 32 31 31 31 31 30 30 30 30
35 37 38 39 39 39 39 38 36 35 34 33 33 33 33 33 33 34 35 34 33 33 32 32 32 32 32 33 34 33 32 32 31 31 31 31 30 30 30 29 29 28
34 35 36 37 37 37 37 36 34 32 31 32 32 32 32 33 33 35 35 34 33 33 32 32 31 31 31 32 33 33 32 32 31 30 30 30 30 29 29 29 28 28
34 34 34 35 35 35 34 32 31 32 32 32 32 32 31 32 34 35 34 33 33 32 32 31 30 30 30 32 33 33 33 32 30 30 29 29 29 29 29 29 28 28
33 32 33 34 33 32 31 30 31 32 32 32 31 31 32 33 34 34 33 33 32 32 31 30 30 29 30 32 32 32 32 31 30 29 29 29 29 29 29 29 29 29
32 31 31 32 31 29 29 29 31 31 31 30 30 31 32 32 33 33 33 32 31 30 30 29 29 29 29 31 31 30 29 29 29 29 28 28 28 28 28 28 28 29
31 29 29 29 28 27 28 29 30 30 30 29 29 29 30 30 31 32 32 31 30 29 29 29 28 28 28 29 29 28 27 27 28 28 27 27 27 27 27 27 28 28
30 29 28 27 26 26 28 29 29 29 29 28 28 28 29 30 31 30 29 29 28 27 28 28 28 27 27 27 26 25 25 26 27 26 26 26 26 26 26 25 26 26
30 28 27 26 25 26 27 28 27 27 26 26 26 27 28 29 29 28 26 25 25 26 27 27 27 26 26 25 24 23 23 26 26 25 24 23 23 22 23 23 24 24
30 28 26 25 25 25 25 25 25 25 24 24 24 25 26 26 25 24 24 23 24 25 25 25 25 25 24 23 22 22 24 26 26 24 22 21 20 20 21 22 23 23
29 27 25 24 24 24 23 23 22 22 22 22 22 23 23 22 21 21 21 22 22 23 23 23 23 23 22 21 21 21 23 25 25 24 23 22 21 21 21 21 23 24
Wind_Direction
240 239 240 241 242 244 244 244 245 246 247 247 247 248 248 249 249 248 249 249 247 244 243 244 246 246 241 233 228 227 228 233 232 228 226 227 229 230 229 227 225 224
241 241 242 243 244 245 245 246 247 248 249 250 250 251 251 252 252 251 252 252 251 249 247 244 243 244 243 237 230 225 227 230 230 229 232 234 232 229 228 227 225 226
243 243 243 244 245 246 247 247 248 249 250 251 252 253 253 253 253 254 254 254 253 252 250 246 243 242 243 244 241 237 236 236 235 236 236 234 231 228 228 227 227 227
245 245 246 247 248 249 249 249 249 249 249 250 251 252 253 253 254 254 253 253 253 253 251 248 245 244 243 244 243 242 240 240 242 242 239 235 232 230 227 226 227 228
249 249 249 250 250 251 251 250 250 250 249 250 251 251 252 252 252 252 252 252 251 252 251 248 248 249 248 245 243 241 239 239 241 240 237 235 233 229 227 226 227 228
251 251 251 252 252 252 252 252 253 252 251 251 251 251 251 250 251 251 251 251 250 250 249 246 245 249 252 249 245 243 243 244 244 241 237 235 233 230 229 228 228 229
253 253 253 253 253 253 253 254 254 254 253 254 253 251 250 248 249 249 250 250 249 249 249 246 245 248 252 251 246 243 243 242 242 239 237 235 233 231 230 231 232 231
255 255 255 255 255 255 254 255 255 254 254 254 254 253 250 249 248 248 249 250 248 249 248 246 247 249 252 252 248 243 241 240 239 237 236 235 233 233 233 234 234 232
258 257 256 255 255 255 256 255 255 255 254 254 254 254 252 250 250 249 248 248 248 248 247 247 250 252 252 253 250 244 240 239 239 238 237 236 235 236 236 235 233 232
261 259 257 256 255 256 256 256 256 255 254 254 254 254 253 251 250 248 247 247 246 246 247 248 252 252 250 250 250 248 244 241 240 239 238 238 238 238 237 235 233 234
262 261 259 257 256 257 257 256 256 256 255 254 253 252 252 251 249 247 245 245 245 245 247 249 252 251 249 250 251 250 247 243 241 239 239 240 240 240 239 238 237 237
261 260 259 259 258 258 259 258 257 256 255 254 252 251 251 250 248 246 245 245 245 245 246 249 252 250 250 252 252 250 248 244 241 240 240 241 241 240 240 240 240 238
263 262 261 261 261 260 259 258 257 256 255 254 252 251 250 248 246 246 245 246 246 245 244 247 251 252 252 253 251 248 246 243 241 240 241 241 242 241 241 240 239 237
268 267 265 264 263 262 259 257 255 254 254 253 251 249 248 247 246 246 246 246 245 244 243 245 249 252 252 251 248 246 245 243 241 241 241 241 242 241 240 239 237 235
272 270 267 266 264 261 259 257 254 253 251 250 249 248 248 247 246 246 246 244 243 243 242 243 245 249 251 250 249 247 245 244 243 241 241 241 240 239 237 235 235 234
272 270 268 265 263 261 260 257 254 253 250 248 247 247 246 246 244 244 243 243 242 242 241 241 242 246 249 250 250 250 248 246 244 242 241 239 237 234 232 231 231 230
273 270 267 264 263 262 259 256 253 252 250 248 247 246 246 244 242 242 242 241 241 242 241 241 242 245 248 248 249 249 248 246 244 243 240 236 233 231 229 227 225 224
278 274 269 266 264 262 259 255 252 250 249 248 247 245 244 243 241 241 241 241 240 240 240 240 242 245 247 248 248 247 246 246 244 242 238 234 231 229 227 225 221 217
283 277 273 269 266 263 260 255 250 248 246 245 245 244 243 240 240 240 240 240 239 238 239 240 242 245 247 247 247 245 244 244 241 239 236 233 230 227 224 222 217 213
285 279 275 272 269 264 259 254 251 248 246 244 242 240 238 237 237 238 238 238 237 237 238 240 242 246 248 247 246 244 243 242 238 236 235 232 229 225 222 219 216 212
288 282 278 274 270 264 259 254 251 249 247 244 241 238 236 236 236 237 236 236 236 236 237 239 243 246 248 247 246 244 242 238 234 233 232 231 228 225 222 219 217 213
292 287 282 277 271 264 258 253 251 249 246 244 241 238 237 236 236 236 235 234 234 234 235 238 242 245 246 246 245 242 238 233 231 230 229 227 225 222 220 219 216 212
295 290 284 279 272 265 259 256 252 250 247 243 239 236 234 233 233 234 234 233 233 233 235 237 241 244 245 244 243 239 231 226 225 225 223 223 222 220 218 216 214 210
298 291 285 279 272 265 261 259 255 252 249 245 240 237 235 234 234 232 231 232 233 234 236 237 240 244 244 241 239 233 224 220 221 219 219 220 219 216 215 212 210 207
298 291 284 277 271 266 263 260 257 254 251 246 241 238 237 235 232 230 229 230 232 234 235 237 239 242 241 238 234 226 219 219 219 216 214 215 212 209 206 204 202 200
297 291 285 279 273 269 264 258 254 249 244 241 237 233 233 233 230 228 228 228 229 230 232 234 236 239 239 237 231 223 218 218 218 214 211 208 204 200 194 190 190 188
Height
794 794 795 795 795 796 797 798 798 799 799 799 799 799 801 802 803 805 806 806 807 808 809 810 811 812 812 812 812 811 811 814 815 815 816 816 817 818 819 821 822 823
792 792 793 793 792 793 794 794 795 795 795 795 796 796 798 799 800 801 802 802 803 803 804 805 806 807 808 809 809 808 808 810 810 811 812 812 813 814 815 816 818 820
790 790 790 790 789 790 790 791 792 791 791 792 792 793 794 795 797 798 799 799 799 800 801 801 802 803 804 805 805 805 805 806 807 807 808 808 808 809 810 813 815 816
788 788 788 787 787 788 788 789 788 788 788 788 788 789 791 792 793 794 795 796 797 797 798 799 800 800 801 802 802 802 802 802 803 804 805 804 805 805 806 809 811 812
786 786 786 786 786 787 787 786 785 785 785 784 785 786 787 788 789 790 791 792 793 794 795 796 797 798 799 799 800 799 799 799 800 801 801 801 801 802 803 805 807 808
783 783 783 783 784 784 785 783 783 783 782 782 783 783 784 784 785 786 787 788 790 791 792 792 793 795 795 796 797 796 796 796 797 798 798 798 798 799 801 802 803 803
779 780 780 781 781 781 781 780 780 780 780 781 782 781 781 781 781 782 783 784 786 787 788 789 790 791 792 792 793 793 793 793 794 795 795 795 796 797 798 798 799 800
776 777 777 778 778 778 777 776 777 778 779 780 780 779 779 779 778 778 779 781 782 783 785 786 787 787 788 788 788 788 789 790 790 791 792 792 793 794 794 795 796 797
773 773 774 774 774 773 773 773 773 775 776 777 777 778 778 777 776 777 776 777 778 779 781 782 783 784 785 784 784 784 785 786 787 787 788 789 789 790 791 792 793 794
771 771 771 770 769 768 768 769 770 771 772 773 774 775 775 775 775 775 774 774 774 775 777 778 779 781 781 781 780 780 781 782 783 784 784 785 785 786 787 788 789 789
767 768 767 766 765 765 765 766 767 768 769 769 770 771 771 772 772 772 772 771 771 772 773 774 776 777 778 778 777 777 778 779 779 780 780 781 782 783 784 785 785 785
763 763 762 761 761 761 762 763 764 765 765 766 766 767 767 768 769 769 769 768 768 769 770 771 772 774 774 774 774 774 775 775 776 776 777 778 779 780 781 782 782 783
759 758 757 757 757 757 757 758 760 760 761 761 762 763 764 764 764 765 765 765 765 766 766 768 769 770 771 771 771 772 772 772 773 773 774 775 776 777 777 778 779 780
755 754 754 754 754 754 754 754 754 755 756 757 758 759 759 760 760 761 762 762 762 762 763 764 766 767 767 768 768 769 769 769 770 770 771 772 772 773 774 775 776 777
752 751 751 751 751 751 751 750 750 750 751 752 754 754 754 756 757 758 759 758 758 759 760 761 762 763 764 765 766 767 767 767 767 768 768 769 769 770 771 772 773 774
749 748 748 747 747 746 746 746 747 747 748 748 749 750 751 752 753 754 755 755 755 756 756 757 758 759 761 763 764 765 765 765 765 765 766 766 767 767 768 769 770 771
745 745 744 744 743 743 742 742 743 744 745 746 746 747 748 749 750 751 751 751 752 752 753 753 754 755 758 760 761 762 763 763 763 763 763 764 764 764 765 766 767 768
742 741 741 740 739 739 739 739 740 740 741 742 743 743 745 746 747 747 748 748 748 749 749 749 750 752 754 756 757 758 759 760 760 760 761 761 761 762 763 764 765 766
739 738 737 736 736 736 736 736 736 735 735 736 737 739 740 741 742 743 744 745 745 745 746 746 747 749 751 752 753 755 756 757 757 758 758 758 759 759 760 761 762 763
736 735 734 733 733 733 733 733 733 732 731 731 732 733 734 736 737 739 740 741 741 742 743 743 745 747 748 749 750 751 752 753 754 755 756 756 756 757 758 759 760 761
734 732 731 730 730 730 730 729 729 729 730 730 730 730 730 731 733 735 736 736 737 738 739 740 742 743 745 746 747 748 750 751 752 753 753 754 755 755 756 757 758 759
732 730 729 728 728 728 727 726 726 726 727 728 728 728 728 729 730 731 732 733 734 735 736 736 738 740 741 742 744 746 747 749 750 750 751 752 753 754 755 756 757 758
731 729 727 726 726 725 724 724 724 724 724 725 725 726 726 726 728 728 729 731 731 732 733 734 736 737 738 740 741 743 745 746 747 748 749 750 751 752 753 755 756 758
728 727 725 723 723 722 721 722 722 722 723 724 724 724 724 725 726 727 728 728 729 730 732 733 734 735 736 738 739 741 743 744 745 747 748 749 750 752 753 754 756 758
726 724 723 721 720 719 719 719 720 720 721 722 723 723 723 724 725 725 726 727 728 729 730 731 732 733 734 736 738 739 741 743 744 746 747 748 750 751 753 754 756 758
724 722 721 720 718 717 717 717 717 717 718 719 721 722 722 723 723 724 724 725 726 727 728 729 730 731 733 734 736 738 740 741 743 744 745 746 748 750 752 753 755 757